RH
100 100 100 100 100 100 100 78 83 84 81 72 62 65 46 43 54 62 70 50 39 36 35 30 33 32 22
100 100 100 100 100 96 80 86 99 86 86 76 56 62 53 34 34 58 62 48 44 37 38 32 32 34 33
100 100 100 100 100 100 96 100 100 88 76 70 57 64 53 41 35 52 41 55 53 40 37 44 31 37 41
100 100 100 100 100 100 100 100 100 86 87 65 63 60 46 33 35 36 36 57 49 45 39 42 32 38 46
100 100 100 100 100 100 100 88 84 82 92 79 74 76 47 40 28 25 40 48 42 50 43 40 35 33 47
100 100 100 100 100 100 100 94 98 100 85 73 73 72 68 47 39 36 41 30 40 47 43 52 47 36 34
100 100 100 100 100 100 97 100 87 100 100 86 100 89 66 34 30 30 20 20 31 38 42 43 32 30 41
100 100 100 100 100 100 100 100 99 100 100 100 100 98 72 40 32 28 19 26 36 40 42 51 38 26 33
100 100 100 100 100 100 100 100 100 98 89 99 96 88 78 44 37 24 22 22 28 34 33 41 25 28 27
100 100 100 100 100 100 100 100 100 100 100 95 64 82 75 37 35 26 24 25 33 30 29 20 21 29 27
100 100 100 100 100 100 100 100 100 100 100 82 93 64 66 55 40 38 28 27 29 27 24 21 22 30 31
100 100 100 100 100 100 100 100 100 100 100 100 93 92 72 68 69 56 43 34 31 29 27 22 21 28 24
100 100 100 100 100 100 100 100 100 100 100 100 95 99 91 90 85 76 60 68 57 40 33 27 22 23 26
100 100 100 100 100 100 100 100 100 100 100 100 100 100 100 85 83 80 74 49 68 57 48 40 30 26 29
99 100 100 100 100 100 100 100 100 100 100 100 100 100 100 100 78 83 82 76 85 72 57 48 33 32 36
64 100 100 100 100 100 100 100 100 100 100 100 100 100 100 100 98 79 78 92 72 62 61 53 44 38 39
34 86 100 100 100 100 100 100 100 100 100 100 100 100 100 100 100 100 83 86 96 81 80 75 70 57 51
Wind_Speed
108 104 109 107 105 92 88 85 83 82 73 71 67 64 53 51 48 42 43 34 33 27 27 26 25 13 14
113 107 107 108 107 104 97 90 83 81 78 75 70 68 59 56 52 47 44 36 33 33 30 29 29 21 16
120 113 111 109 107 101 99 89 83 84 81 78 75 70 64 58 53 51 47 41 40 36 34 33 27 26 18
121 118 110 111 112 110 105 99 93 86 82 82 82 75 68 64 57 54 51 48 44 40 37 34 31 25 22
130 122 115 111 111 108 100 94 94 88 84 76 73 74 73 66 60 57 55 49 48 43 39 35 33 26 25
130 127 124 117 112 106 102 96 95 92 88 80 81 79 75 69 62 64 55 53 51 46 43 38 37 28 25
133 129 125 122 115 110 108 101 95 92 91 85 85 78 76 69 67 65 55 54 52 50 43 40 37 30 28
137 137 133 125 119 116 110 103 101 96 95 91 86 82 78 73 69 63 59 55 54 52 48 44 39 36 29
149 139 136 132 123 116 109 104 103 101 99 93 88 84 81 77 71 61 61 55 52 52 48 41 39 43 29
149 139 133 135 127 120 113 107 105 105 102 99 96 90 88 78 77 66 61 59 51 49 48 39 42 43 35
156 143 137 134 130 123 115 112 109 109 105 101 99 99 91 85 83 74 65 61 52 52 45 41 47 45 40
157 148 145 137 134 131 123 117 115 111 109 102 98 96 94 89 83 76 73 69 71 63 59 47 49 49 45
160 150 148 139 133 129 126 122 119 118 115 108 102 102 97 92 88 82 80 75 70 63 63 60 57 54 50
164 152 147 142 140 135 131 128 122 120 118 116 109 108 102 98 93 87 79 78 77 69 71 66 58 53 53
168 148 140 144 139 135 136 132 130 125 122 118 116 112 106 102 102 92 87 82 79 74 72 70 61 60 59
167 164 152 143 141 139 137 133 131 129 122 119 116 110 109 107 100 96 91 88 84 78 79 72 71 65 65
168 166 167 149 149 143 143 138 136 132 129 127 121 118 109 108 101 98 97 94 85 83 82 74 74 72 71
Wind_Direction
207 207 208 210 214 215 215 217 219 218 219 222 224 225 227 233 235 240 244 251 250 261 262 266 271 291 289
206 206 209 212 214 217 221 216 216 219 221 223 222 226 231 232 234 234 241 240 245 259 262 262 271 283 282
207 209 212 213 215 216 215 216 218 219 221 221 221 227 227 230 231 230 238 237 242 252 257 262 262 275 294
204 209 211 213 217 218 219 223 223 220 224 225 225 227 228 229 230 235 236 236 244 244 248 252 256 273 288
204 206 208 213 216 218 218 220 222 222 222 225 227 229 231 228 228 237 232 238 243 239 237 243 250 269 275
206 207 208 211 214 216 216 215 216 220 226 225 226 225 227 228 228 228 231 236 237 235 230 237 245 257 262
203 205 208 210 212 213 215 215 218 221 223 223 225 224 227 225 229 226 231 238 236 237 230 236 246 249 259
203 207 209 210 212 214 215 217 219 218 219 221 222 221 224 228 227 226 230 233 235 237 230 234 245 248 253
204 208 209 212 211 213 215 217 219 220 220 218 220 222 223 225 225 226 228 228 232 230 230 249 259 248 243
203 207 207 210 212 214 215 216 220 220 217 220 222 224 225 224 222 226 231 229 231 231 233 255 254 243 237
204 206 207 211 211 213 215 216 217 219 220 224 222 224 225 225 227 227 229 227 231 235 238 247 249 240 239
203 206 209 209 210 213 214 216 217 218 221 219 221 222 223 226 228 232 225 227 234 240 239 242 244 243 250
203 206 207 207 211 214 215 217 219 220 220 220 221 219 223 225 229 228 228 234 233 236 235 236 245 245 243
203 205 208 210 212 213 216 218 218 220 219 223 222 223 225 230 231 226 227 233 230 238 236 238 245 242 238
204 203 205 211 211 213 216 217 220 222 223 222 224 225 227 225 227 230 233 230 232 237 233 237 242 244 241
206 206 205 209 210 212 214 216 218 220 221 221 222 221 225 226 227 233 236 233 234 237 232 238 243 243 241
207 208 208 208 213 213 214 216 217 220 224 223 223 224 227 228 228 232 239 234 233 232 234 236 239 243 241